SP9EPI-13 Weather Reports


time (UTC)temp
C
wind
direction
speed
KPH
gust
KPH
rain 1hr
cm
rain 24hr
cm
rain mn
cm
humidity
%
barometer
mb
20260506205001 16 82 6.4 0.0 0.00 0.00 0.00 76 1003.0
20260506204001 16 180 6.4 0.0 0.00 0.00 0.00 78 1003.0
20260506203001 17 60 0.0 0.0 0.00 0.00 0.00 71 1003.0
20260506202001 16 89 0.0 0.0 0.00 0.00 0.00 71 1003.0
20260506201001 16 170 0.0 0.0 0.00 0.00 0.00 75 1003.0
20260506200000 15 15 3.2 0.0 0.00 0.00 0.00 80 1003.0
20260506195000 15 147 3.2 0.0 0.00 0.00 0.00 81 1002.7
20260506194000 16 60 0.0 0.0 0.00 0.00 0.00 71 1002.7
20260506193000 16 81 3.2 0.0 0.00 0.00 0.00 73 1002.7
20260506192000 16 129 0.0 0.0 0.00 0.00 0.00 72 1002.7
20260506191001 16 205 6.4 0.0 0.00 0.00 0.00 73 1002.7
20260506190000 16 219 6.4 0.0 0.00 0.00 0.00 76 1002.7
20260506185001 17 155 6.4 0.0 0.00 0.00 0.00 71 1002.3
20260506184000 17 8 0.0 0.0 0.00 0.00 0.00 75 1002.3
20260506183000 17 202 14.5 0.0 0.00 0.00 0.00 66 1002.3
20260506182000 18 171 3.2 0.0 0.00 0.00 0.00 60 1002.3
20260506181001 18 87 3.2 0.0 0.00 0.00 0.00 58 1002.3
20260506180001 20 79 3.2 0.0 0.00 0.00 0.00 55 1002.3
20260506175000 20 63 0.0 0.0 0.00 0.00 0.00 54 1002.3
20260506174000 20 2 0.0 0.0 0.00 0.00 0.00 52 1002.3
20260506173000 21 229 14.5 0.0 0.00 0.00 0.00 52 1002.3
20260506172000 21 191 6.4 0.0 0.00 0.00 0.00 51 1002.3
20260506171000 21 239 14.5 0.0 0.00 0.00 0.00 49 1002.3
20260506170000 21 223 11.3 0.0 0.00 0.00 0.00 48 1002.3
20260506165000 22 237 17.7 0.0 0.00 0.00 0.00 47 1002.3
20260506164000 22 228 17.7 0.0 0.00 0.00 0.00 46 1002.3
20260506163000 22 219 25.7 0.0 0.00 0.00 0.00 45 1002.0
20260506162012 22 256 29.0 0.0 0.00 0.00 0.00 44 1001.3
20260506161001 23 215 25.7 0.0 0.00 0.00 0.00 43 1001.3
20260506160000 23 224 20.9 0.0 0.00 0.00 0.00 40 1001.3
20260506155000 25 236 17.7 0.0 0.00 0.00 0.00 39 1002.0
20260506154000 25 233 25.7 0.0 0.00 0.00 0.00 37 1002.0
20260506153001 25 227 20.9 0.0 0.00 0.00 0.00 37 1002.0
20260506152001 27 270 17.7 0.0 0.00 0.00 0.00 34 1002.0
20260506151001 27 247 11.3 0.0 0.00 0.00 0.00 32 1002.0
20260506150000 27 90 6.4 0.0 0.00 0.00 0.00 34 1002.0
20260506145000 27 318 17.7 0.0 0.00 0.00 0.00 34 1002.0
20260506144001 27 241 14.5 0.0 0.00 0.00 0.00 32 1002.0
20260506143001 27 298 6.4 0.0 0.00 0.00 0.00 37 1002.0
20260506142001 27 329 11.3 0.0 0.00 0.00 0.00 33 1002.3
20260506141001 27 6 14.5 0.0 0.00 0.00 0.00 35 1002.3
20260506140000 27 226 14.5 0.0 0.00 0.00 0.00 33 1002.3
20260506135001 27 39 11.3 0.0 0.00 0.00 0.00 34 1002.3
20260506134001 27 180 25.7 0.0 0.00 0.00 0.00 35 1002.3
20260506133001 26 220 14.5 0.0 0.00 0.00 0.00 38 1002.3
20260506132001 26 270 17.7 0.0 0.00 0.00 0.00 37 1002.3
20260506131001 27 205 46.7 0.0 0.00 0.00 0.00 33 1002.3
20260506130000 27 242 14.5 0.0 0.00 0.00 0.00 34 1002.3
20260506125000 26 239 17.7 0.0 0.00 0.00 0.00 37 1002.7
20260506124001 26 241 6.4 0.0 0.00 0.00 0.00 37 1002.7
20260506123001 27 210 35.4 0.0 0.00 0.00 0.00 34 1002.7
20260506122000 26 225 29.0 0.0 0.00 0.00 0.00 36 1002.7
20260506121001 26 249 17.7 0.0 0.00 0.00 0.00 37 1002.7
20260506120000 27 251 11.3 0.0 0.00 0.00 0.00 37 1002.7
20260506115001 26 295 25.7 0.0 0.00 0.00 0.00 38 1003.0
20260506114001 25 230 35.4 0.0 0.00 0.00 0.00 38 1003.0
20260506113000 27 257 20.9 0.0 0.00 0.00 0.00 37 1003.0
20260506112001 26 207 32.2 0.0 0.00 0.00 0.00 36 1003.0
20260506111000 26 204 32.2 0.0 0.00 0.00 0.00 36 1003.0
20260506110001 26 262 40.2 0.0 0.00 0.00 0.00 37 1003.0
20260506105000 26 258 43.5 0.0 0.00 0.00 0.00 38 1003.0
20260506104001 26 284 46.7 0.0 0.00 0.00 0.00 39 1003.0
20260506103000 25 227 32.2 0.0 0.00 0.00 0.00 40 1003.0
20260506102001 26 243 20.9 0.0 0.00 0.00 0.00 41 1003.0
20260506101000 26 37 14.5 0.0 0.00 0.00 0.00 41 1003.0
20260506100000 25 248 17.7 0.0 0.00 0.00 0.00 46 1003.0
20260506095000 23 63 11.3 0.0 0.00 0.00 0.00 43 1003.0
20260506094000 23 279 25.7 0.0 0.00 0.00 0.00 43 1003.0
20260506093000 23 310 17.7 0.0 0.00 0.00 0.00 43 1003.0
20260506092000 23 282 25.7 0.0 0.00 0.00 0.00 45 1003.0
20260506091000 23 269 29.0 0.0 0.00 0.00 0.00 46 1003.0
20260506090000 23 234 29.0 0.0 0.00 0.00 0.00 45 1003.0
20260506085001 22 242 25.7 0.0 0.00 0.00 0.00 44 1003.0
20260506084001 23 236 35.4 0.0 0.00 0.00 0.00 46 1003.0
20260506083000 23 222 20.9 0.0 0.00 0.00 0.00 46 1003.0
20260506082000 23 359 35.4 0.0 0.00 0.00 0.00 45 1002.7
20260506081000 22 267 17.7 0.0 0.00 0.00 0.00 48 1002.7
20260506073001 22 224 11.3 0.0 0.00 0.00 0.00 44 1002.3
20260506072001 22 223 17.7 0.0 0.00 0.00 0.00 45 1002.3
20260506071000 22 174 32.2 0.0 0.00 0.00 0.00 45 1002.7
20260506062000 21 269 17.7 0.0 0.00 0.00 0.00 50 1002.7
20260506061001 21 191 20.9 0.0 0.00 0.00 0.00 47 1002.3
20260506051001 16 211 6.4 0.0 0.00 0.00 0.00 69 1002.3
20260506045000 16 151 6.4 0.0 0.00 0.00 0.00 63 1002.3
20260506044000 15 173 6.4 0.0 0.00 0.00 0.00 66 1002.3
20260506043001 15 252 6.4 0.0 0.00 0.00 0.00 70 1002.0
20260506042001 13 213 3.2 0.0 0.00 0.00 0.00 78 1002.0
20260506041001 12 158 0.0 0.0 0.00 0.00 0.00 78 1002.0
20260506040001 12 46 0.0 0.0 0.00 0.00 0.00 77 1002.3
20260506035001 12 58 0.0 0.0 0.00 0.00 0.00 78 1002.3
20260506034000 12 80 3.2 0.0 0.00 0.00 0.00 76 1002.3
20260506033000 11 65 0.0 0.0 0.00 0.00 0.00 78 1002.3
20260506032001 11 240 3.2 0.0 0.00 0.00 0.00 80 1002.3
20260506031001 11 47 0.0 0.0 0.00 0.00 0.00 78 1002.3
20260506030001 11 334 3.2 0.0 0.00 0.00 0.00 81 1002.3
20260506025001 12 90 0.0 0.0 0.00 0.00 0.00 89 1002.3
20260506024000 12 56 0.0 0.0 0.00 0.00 0.00 88 1002.3
20260506023001 12 60 3.2 0.0 0.00 0.00 0.00 91 1002.0
20260506022001 12 65 6.4 0.0 0.00 0.00 0.00 84 1002.3
20260506021000 12 17 0.0 0.0 0.00 0.00 0.00 77 1002.3
20260506020000 12 55 11.3 0.0 0.00 0.00 0.00 79 1002.3
20260506015001 12 39 0.0 0.0 0.00 0.00 0.00 75 1002.3
20260506014000 12 15 0.0 0.0 0.00 0.00 0.00 72 1002.3
20260506013001 12 258 0.0 0.0 0.00 0.00 0.00 79 1002.3
20260506012000 12 57 3.2 0.0 0.00 0.00 0.00 88 1002.7
20260506011000 12 258 0.0 0.0 0.00 0.00 0.00 87 1002.7
20260506010000 12 270 0.0 0.0 0.00 0.00 0.00 82 1002.7
20260506005000 12 120 3.2 0.0 0.00 0.00 0.00 83 1002.7
20260506004001 12 159 3.2 0.0 0.00 0.00 0.00 80 1002.7
20260506003001 13 27 0.0 0.0 0.00 0.00 0.00 71 1002.7
20260506002000 13 38 0.0 0.0 0.00 0.00 0.00 61 1002.7
20260506001001 13 72 0.0 0.0 0.00 0.00 0.00 61 1002.7
20260506000000 13 85 0.0 0.0 0.00 0.00 0.00 59 1003.0
20260505235001 13 345 3.2 0.0 0.00 0.00 0.00 64 1003.0
20260505234000 13 165 6.4 0.0 0.00 0.00 0.00 62 1003.0
20260505233001 13 43 0.0 0.0 0.00 0.00 0.00 57 1003.0
20260505232000 13 205 0.0 0.0 0.00 0.00 0.00 55 1003.0
20260505231000 15 87 0.0 0.0 0.00 0.00 0.00 52 1003.0
20260505230000 15 169 3.2 0.0 0.00 0.00 0.00 54 1003.0
20260505225001 15 193 3.2 0.0 0.00 0.00 0.00 58 1003.0
20260505224001 15 153 0.0 0.0 0.00 0.00 0.00 59 1003.0
20260505223000 15 190 3.2 0.0 0.00 0.00 0.00 54 1003.0
20260505222000 15 168 6.4 0.0 0.00 0.00 0.00 51 1003.0
20260505221000 15 160 3.2 0.0 0.00 0.00 0.00 53 1003.0
20260505220001 15 175 3.2 0.0 0.00 0.00 0.00 54 1003.0
20260505215000 16 185 11.3 0.0 0.00 0.00 0.00 53 1003.0
20260505214000 17 133 3.2 0.0 0.00 0.00 0.00 46 1003.0
20260505213000 17 175 14.5 0.0 0.00 0.00 0.00 41 1003.0
20260505212000 17 180 14.5 0.0 0.00 0.00 0.00 41 1003.0
20260505211000 17 189 11.3 0.0 0.00 0.00 0.00 43 1003.0
20260505210000 17 180 6.4 0.0 0.00 0.00 0.00 43 1003.0